Weather History for Tin City, AK

Change the Weather History Date:

Tuesday, November 20, 2012

  Actual Average Record
Temperature  
Mean Temperature 14 °F -  
Max Temperature 18 °F 21 °F 35 °F (2004)
Min Temperature 13 °F 10 °F -2 °F (2005)
Degree Days  
Heating Degree Days 50    
Moisture  
Dew Point 8 °F    
Average Humidity 73    
Maximum Humidity 95    
Minimum Humidity 46    
Precipitation  
Precipitation 0.00 in - - ()
Sea Level Pressure  
Sea Level Pressure 30.28 in    
Wind  
Wind Speed 5 mph (NE)    
Max Wind Speed 18 mph    
Max Gust Speed -    
Visibility 10 miles    
Events      
Averages and records for this station are not official NWS values.
T = Trace of Precipitation, MM = Missing Value Source: NWS Daily Summary

Daily Weather History Graph

Daily Weather History Graph

Search for Another Location

Airport:

Trip Planner

Search our weather history database for the weather conditions in past years. The results will help you decide how hot, cold, wet, or windy it might be!

Date:

Astronomy

Nov. 20, 2012 Rise Set
Actual Time 11:15 AM AKST 4:38 PM AKST
Civil Twilight 10:05 AM AKST 5:49 PM AKST
Nautical Twilight 8:58 AM AKST 6:55 PM AKST
Astronomical Twilight 7:57 AM AKST 7:56 PM AKST
Moon 3:14 PM AKST (11/20) 12:46 AM AKST (11/20)
Length of Visible Light 7h 44m
Length of Day
5h 23m
First Quarter, 53% of the Moon is Illuminated
Nov 20
First Quarter
Nov 28
Full
Dec 6
Last Quarter
Dec 12
New
Dec 19
First Quarter

Hourly Weather History & Observations

Time (AKST) Temp. Windchill Dew Point Humidity Pressure Visibility Wind Dir Wind Speed Gust Speed Precip Events Conditions
12:55 AM 13.1 °F - 5.0 °F 70% 30.34 in 10.0 mi WSW 2.3 mph - N/A   Clear
1:55 AM 13.8 °F - 4.5 °F 66% 30.34 in 10.0 mi NE 2.3 mph - N/A   Clear
2:55 AM 14.2 °F 8.4 °F 3.6 °F 63% 30.34 in 10.0 mi North 3.5 mph - N/A   Clear
3:55 AM 13.6 °F 7.7 °F 3.6 °F 64% 30.33 in 10.0 mi East 3.5 mph - N/A   Clear
4:55 AM 13.6 °F - 6.8 °F 74% 30.32 in 10.0 mi ESE 2.3 mph - N/A   Clear
5:55 AM 14.2 °F 8.4 °F 9.5 °F 82% 30.32 in 10.0 mi East 3.5 mph - N/A   Clear
6:55 AM 14.4 °F - 10.8 °F 86% 30.31 in 10.0 mi South 2.3 mph - N/A   Clear
7:55 AM 14.7 °F - 11.5 °F 87% 30.30 in 10.0 mi SSE 1.2 mph - N/A   Clear
8:55 AM 14.5 °F - 11.3 °F 87% 30.30 in 10.0 mi NNE 2.3 mph - N/A   Clear
9:55 AM 15.3 °F 9.6 °F 11.1 °F 84% 30.29 in 10.0 mi WNW 3.5 mph - N/A   Scattered Clouds
10:55 AM 14.4 °F 3.3 °F 6.1 °F 70% 30.29 in 10.0 mi NE 8.1 mph - N/A   Overcast
11:55 AM 14.5 °F 7.1 °F 7.3 °F 73% 30.27 in 10.0 mi NE 4.6 mph - N/A   Mostly Cloudy
12:55 PM 15.3 °F - 3.4 °F 59% 30.27 in 10.0 mi NE 2.3 mph - N/A   Partly Cloudy
1:55 PM 16.7 °F - 1.8 °F 52% 30.27 in 10.0 mi Variable 1.2 mph - N/A   Clear
2:55 PM 16.3 °F 7.8 °F -1.3 °F 46% 30.27 in 10.0 mi East 5.8 mph - N/A   Partly Cloudy
3:55 PM 15.4 °F 3.8 °F 1.6 °F 54% 30.26 in 10.0 mi NE 9.2 mph - N/A   Clear
4:55 PM 16.3 °F 5.7 °F 5.4 °F 62% 30.26 in 10.0 mi NE 8.1 mph - N/A   Partly Cloudy
5:55 PM 15.8 °F 4.2 °F 2.5 °F 56% 30.25 in 10.0 mi NNE 9.2 mph - N/A   Mostly Cloudy
6:55 PM 15.4 °F 3.0 °F 7.9 °F 72% 30.24 in 10.0 mi NE 10.4 mph - N/A   Overcast
7:55 PM 15.6 °F 0.6 °F 11.7 °F 84% 30.23 in 10.0 mi NNE 15.0 mph - N/A   Mostly Cloudy
8:55 PM 16.7 °F 2.0 °F 15.3 °F 94% 30.23 in 10.0 mi NNE 15.0 mph - N/A   Mostly Cloudy
9:55 PM 15.8 °F 0.3 °F 14.5 °F 95% 30.23 in 10.0 mi NNE 16.1 mph - N/A   Clear
10:55 PM 16.9 °F 0.8 °F 14.4 °F 90% 30.23 in 10.0 mi NNE 18.4 mph - N/A   Mostly Cloudy
11:55 PM 18.3 °F 3.6 °F 12.4 °F 78% 30.23 in 10.0 mi North 16.1 mph - N/A   Mostly Cloudy